Time,TemperatureF,DewpointF,PressureIn,WindDirection,WindDirectionDegrees,WindSpeedMPH,WindSpeedGustMPH,Humidity,HourlyPrecipIn,Conditions,Clouds,dailyrainin,SoftwareType,DateUTC
2013-10-24 00:22:00,53.0,45.0,30.07,SSE,152,0.0,-999.0,74,-99.99,,,-99.99,,2013-10-24 05:22:00,
2013-10-24 00:53:00,52.0,44.0,30.08,SSE,152,0.0,-999.0,74,-99.99,,,-99.99,,2013-10-24 05:53:00,
2013-10-24 01:21:00,51.0,43.0,30.08,SSE,152,0.0,-999.0,74,-99.99,,,-99.99,,2013-10-24 06:21:00,
2013-10-24 01:52:00,51.0,43.0,30.08,SE,128,0.0,-999.0,73,-99.99,,,-99.99,,2013-10-24 06:52:00,
2013-10-24 02:21:00,50.0,43.0,30.09,SE,128,0.0,-999.0,77,-99.99,,,-99.99,,2013-10-24 07:21:00,
2013-10-24 02:52:00,48.0,43.0,30.10,SE,128,0.0,-999.0,82,-99.99,,,-99.99,,2013-10-24 07:52:00,
2013-10-24 03:21:00,47.0,43.0,30.10,SE,128,0.0,-999.0,85,-99.99,,,-99.99,,2013-10-24 08:21:00,
2013-10-24 03:53:00,46.0,42.0,30.10,SE,128,0.0,-999.0,87,-99.99,,,-99.99,,2013-10-24 08:53:00,
2013-10-24 04:22:00,47.0,43.0,30.11,SE,128,0.0,-999.0,87,-99.99,,,-99.99,,2013-10-24 09:22:00,
2013-10-24 04:53:00,46.0,42.0,30.13,SE,128,0.0,-999.0,87,-99.99,,,-99.99,,2013-10-24 09:53:00,
2013-10-24 05:23:00,48.0,42.0,30.15,North,353,0.0,-999.0,81,-99.99,,,-99.99,,2013-10-24 10:23:00,
2013-10-24 05:53:00,48.0,41.0,30.17,NW,319,1.0,-999.0,78,-99.99,,,-99.99,,2013-10-24 10:53:00,
2013-10-24 06:22:00,46.0,41.0,30.18,NNW,347,1.0,-999.0,81,-99.99,,,-99.99,,2013-10-24 11:22:00,
2013-10-24 06:53:00,46.0,40.0,30.20,NNW,340,0.0,-999.0,80,-99.99,,,-99.99,,2013-10-24 11:53:00,
2013-10-24 07:22:00,45.0,39.0,30.21,ENE,76,0.0,-999.0,79,-99.99,,,-99.99,,2013-10-24 12:22:00,
2013-10-24 07:52:00,44.0,38.0,30.23,NW,325,0.0,-999.0,79,-99.99,,,-99.99,,2013-10-24 12:52:00,
2013-10-24 08:22:00,44.0,37.0,30.24,WSW,248,0.0,-999.0,77,-99.99,,,-99.99,,2013-10-24 13:22:00,
2013-10-24 08:52:00,45.0,37.0,30.27,ENE,71,0.0,-999.0,74,-99.99,,,-99.99,,2013-10-24 13:52:00,
2013-10-24 09:21:00,45.0,36.0,30.30,NE,48,0.0,-999.0,71,-99.99,,,-99.99,,2013-10-24 14:21:00,
2013-10-24 09:52:00,47.0,36.0,30.31,WNW,302,0.0,-999.0,65,-99.99,,,-99.99,,2013-10-24 14:52:00,
2013-10-24 10:21:00,48.0,35.0,30.33,NE,41,1.0,-999.0,61,-99.99,,,-99.99,,2013-10-24 15:21:00,
2013-10-24 10:53:00,49.0,33.0,30.35,NE,47,1.0,-999.0,54,-99.99,,,-99.99,,2013-10-24 15:53:00,
2013-10-24 11:23:00,50.0,34.0,30.34,West,277,1.0,-999.0,54,-99.99,,,-99.99,,2013-10-24 16:23:00,
2013-10-24 11:53:00,52.0,34.0,30.34,ENE,76,1.0,-999.0,51,-99.99,,,-99.99,,2013-10-24 16:53:00,
2013-10-24 12:22:00,52.0,34.0,30.35,NNW,330,1.0,-999.0,50,-99.99,,,-99.99,,2013-10-24 17:22:00,
2013-10-24 12:52:00,53.0,35.0,30.35,NNW,333,0.0,-999.0,50,-99.99,,,-99.99,,2013-10-24 17:52:00,
2013-10-24 13:23:00,54.0,34.0,30.34,ENE,75,1.0,-999.0,46,-99.99,,,-99.99,,2013-10-24 18:23:00,
2013-10-24 13:42:00,54.0,34.0,30.34,North,353,1.0,-999.0,47,-99.99,,,-99.99,,2013-10-24 18:42:00,
2013-10-24 13:53:00,54.0,35.0,30.33,NW,318,1.0,-999.0,48,-99.99,,,-99.99,,2013-10-24 18:53:00,
2013-10-24 14:22:00,55.0,36.0,30.32,WNW,291,0.0,-999.0,48,-99.99,,,-99.99,,2013-10-24 19:22:00,
2013-10-24 14:53:00,56.0,36.0,30.32,ESE,109,0.0,-999.0,46,-99.99,,,-99.99,,2013-10-24 19:53:00,
2013-10-24 15:23:00,56.0,34.0,30.32,NNW,333,1.0,-999.0,43,-99.99,,,-99.99,,2013-10-24 20:23:00,
2013-10-24 15:53:00,56.0,34.0,30.31,North,360,1.0,-999.0,43,-99.99,,,-99.99,,2013-10-24 20:53:00,
2013-10-24 16:22:00,57.0,33.0,30.32,ENE,64,0.0,-999.0,40,-99.99,,,-99.99,,2013-10-24 21:22:00,
2013-10-24 16:54:00,56.0,34.0,30.32,North,1,0.0,-999.0,43,-99.99,,,-99.99,,2013-10-24 21:54:00,
2013-10-24 17:24:00,56.0,33.0,30.32,NNW,333,0.0,-999.0,42,-99.99,,,-99.99,,2013-10-24 22:24:00,
2013-10-24 17:54:00,55.0,33.0,30.32,NNW,336,0.0,-999.0,43,-99.99,,,-99.99,,2013-10-24 22:54:00,
2013-10-24 18:22:00,54.0,33.0,30.31,North,11,0.0,-999.0,44,-99.99,,,-99.99,,2013-10-24 23:22:00,
2013-10-24 18:53:00,52.0,32.0,30.32,NW,322,0.0,-999.0,47,-99.99,,,-99.99,,2013-10-24 23:53:00,
2013-10-24 19:22:00,51.0,34.0,30.32,NW,322,0.0,-999.0,53,-99.99,,,-99.99,,2013-10-25 00:22:00,
2013-10-24 19:52:00,49.0,34.0,30.33,ENE,64,0.0,-999.0,56,-99.99,,,-99.99,,2013-10-25 00:52:00,
2013-10-24 20:21:00,48.0,34.0,30.34,ENE,64,0.0,-999.0,58,-99.99,,,-99.99,,2013-10-25 01:21:00,
2013-10-24 20:53:00,48.0,33.0,30.35,ENE,66,0.0,-999.0,56,-99.99,,,-99.99,,2013-10-25 01:53:00,
2013-10-24 21:22:00,48.0,33.0,30.37,NE,55,0.0,-999.0,55,-99.99,,,-99.99,,2013-10-25 02:22:00,
2013-10-24 21:52:00,47.0,33.0,30.37,ENE,69,0.0,-999.0,57,-99.99,,,-99.99,,2013-10-25 02:52:00,
2013-10-24 22:23:00,46.0,32.0,30.38,ENE,69,0.0,-999.0,58,-99.99,,,-99.99,,2013-10-25 03:23:00,
2013-10-24 22:54:00,46.0,31.0,30.40,NNW,332,0.0,-999.0,55,-99.99,,,-99.99,,2013-10-25 03:54:00,
2013-10-24 23:03:00,45.0,31.0,30.40,NNE,30,0.0,-999.0,57,-99.99,,,-99.99,,2013-10-25 04:03:00,
2013-10-24 23:24:00,45.0,31.0,30.40,NNE,30,0.0,-999.0,57,-99.99,,,-99.99,,2013-10-25 04:24:00,
2013-10-24 23:34:00,45.0,31.0,30.40,NNE,30,0.0,-999.0,57,-99.99,,,-99.99,,2013-10-25 04:34:00,
2013-10-24 23:54:00,45.0,31.0,30.40,NNE,30,0.0,-999.0,57,-99.99,,,-99.99,,2013-10-25 04:54:00,